This is the latest recevied weather packets stored in our database for station/object KV4OP. If no packets are shown the sender has not sent any weather packets the latest 10 day(s).
| Time | Temp. | Humidity | Pressure | Rain* | Wind** | Luminosity | Snow |
|---|---|---|---|---|---|---|---|
| 1778111446 | 28.89° C | 56% | 1015.4 hPa | 0 mm | - | - | - |
| 1778111151 | 28.89° C | 55% | 1015.3 hPa | 0 mm | - | - | - |
| 1778110846 | 29.44° C | 55% | 1015.3 hPa | 0 mm | - | - | - |
| 1778110546 | 29.44° C | 54% | 1015.4 hPa | 0 mm | - | - | - |
| 1778110245 | 29.44° C | 54% | 1015.4 hPa | 0 mm | - | - | - |
| 1778109944 | 30° C | 54% | 1015.3 hPa | 0 mm | - | - | - |
| 1778109644 | 30° C | 53% | 1015.4 hPa | 0 mm | - | - | - |
| 1778109346 | 30° C | 54% | 1015.3 hPa | 0 mm | - | - | - |
| 1778109044 | 30.56° C | 53% | 1015.3 hPa | 0 mm | - | - | - |
| 1778108744 | 30.56° C | 53% | 1015.4 hPa | 0 mm | - | - | - |
| 1778108443 | 30.56° C | 53% | 1015.3 hPa | 0 mm | - | - | - |
| 1778108144 | 31.11° C | 52% | 1015.3 hPa | 0 mm | - | - | - |
| 1778107843 | 31.11° C | 52% | 1015.3 hPa | 0 mm | - | - | - |
| 1778107557 | 31.11° C | 51% | 1015.3 hPa | 0 mm | - | - | - |
| 1778107243 | 31.67° C | 52% | 1015.3 hPa | 0 mm | - | - | - |
| 1778106943 | 31.67° C | 51% | 1015.3 hPa | 0 mm | - | - | - |
| 1778106643 | 31.67° C | 51% | 1015.3 hPa | 0 mm | - | - | - |
| 1778106343 | 31.67° C | 51% | 1015.3 hPa | 0 mm | - | - | - |
| 1778106041 | 32.22° C | 51% | 1015.3 hPa | 0 mm | - | - | - |
| 1778105740 | 31.67° C | 51% | 1015.4 hPa | 0 mm | - | - | - |
| 1778105440 | 32.22° C | 50% | 1015.3 hPa | 0 mm | - | - | - |
| 1778105140 | 32.22° C | 52% | 1015.2 hPa | 0 mm | - | - | - |
| 1778104840 | 32.22° C | 52% | 1015.2 hPa | 0 mm | - | - | - |
| 1778104540 | 32.78° C | 48% | 1015.3 hPa | 0 mm | - | - | - |
| 1778104240 | 32.78° C | 45% | 1015.2 hPa | 0 mm | - | - | - |
* Rain latest hour (hover to see other rain measurements)
** Current wind speed in m/s (hover to see current wind gust speed)